Vertical_Velocity
-2 -2 -1 -4 -4 -3 -3 -2 -1 -1 -2 -1 -1 0 -0 0 -1 -0 -1 -1 -1 -1 0 -0 -1 -0 -1 -1 1 1 -1 -1 -1 -0 -0 0 1 1 0 -0 -1 0 -2
-1 3 -0 -2 -2 -2 -2 -1 -1 -1 -1 -1 -0 0 -1 0 1 -0 -1 -2 -1 0 0 -2 -1 -2 -2 -0 1 1 1 -1 -1 0 -1 -0 0 1 1 1 -1 -2 -2
1 2 1 1 -2 -1 -3 -3 -2 -2 0 -1 -0 0 1 0 0 2 2 2 -0 -0 0 0 -1 1 2 1 1 1 0 1 -0 -1 -0 -0 -0 1 1 -0 -1 -2 -1
2 2 3 1 0 2 -0 -2 -1 -1 -2 -2 -1 -1 1 0 0 1 0 0 1 0 1 1 0 -0 -0 -1 1 0 1 0 -0 0 0 1 1 1 -0 0 1 1 0
3 4 3 1 1 -1 -4 -1 -2 -4 -1 -2 -1 1 -0 -0 0 -1 0 -1 1 0 0 1 0 -1 1 -0 1 0 -0 -1 0 2 -0 1 2 2 -1 0 -1 -0 1
1 1 -1 1 0 0 -3 -1 -2 -2 -2 -2 -2 -3 -2 0 -0 0 -0 1 -1 0 -1 -1 -1 -2 1 -0 -0 0 1 1 1 0 1 3 2 1 -0 -1 -0 -1 -1
1 1 -0 -1 2 2 -0 -1 0 -1 -2 -3 -3 -1 -1 -3 -0 -1 -0 -1 0 0 2 1 -0 -0 0 -0 -1 0 1 1 1 1 -0 -0 0 -0 1 -1 1 -1 -1
-2 1 2 -0 1 -0 1 -1 -0 -1 0 -4 -2 -2 -2 -1 -2 -2 -1 -0 -0 -1 -1 1 -0 0 0 -1 1 1 -0 -1 0 -1 0 0 -0 1 -0 -0 -1 -0 -1
-3 -0 -0 2 3 0 1 -0 -0 1 2 -3 -2 1 -0 -0 -1 -2 -2 -2 -3 -0 -0 -2 -1 -2 0 1 -1 0 -2 -1 -1 0 2 -1 -1 -1 1 -2 -3 -0 -1
0 -0 2 -0 1 3 1 1 2 0 1 0 -0 -1 0 1 1 1 -0 1 -1 -3 -1 -3 0 -1 -1 -2 -0 -1 1 -1 -0 -1 -1 -2 -0 -3 1 -2 -2 -0 -5
1 0 1 2 2 1 -1 1 0 1 1 2 1 1 -0 0 1 2 2 -1 0 -1 -3 -3 -4 -0 -1 -1 -2 -2 -0 1 0 -1 -1 -0 0 -1 -2 0 -2 0 0
0 4 4 3 4 0 -1 -0 -0 1 1 2 2 1 0 0 -1 0 2 0 2 -0 -1 0 -1 -1 -2 -1 -2 0 -2 1 -1 0 -2 -0 -0 -1 -1 -1 -2 1 -3
0 -4 2 3 2 1 3 0 -0 1 -0 1 2 2 1 -0 1 1 0 2 2 2 1 -1 -0 -1 -1 -1 1 -1 -1 0 -0 -1 1 -2 -1 -0 -2 -1 -1 0 -0
5 -1 -2 1 1 -1 1 2 1 1 -0 0 1 1 2 -1 -1 -0 -1 1 -0 -1 -0 1 1 1 2 -1 -2 -2 -2 -1 0 -1 -1 0 -1 -2 0 -1 -2 0 -0
-3 2 0 -2 -1 3 1 0 -0 3 -0 1 -1 0 1 2 1 -2 -1 1 1 1 1 1 -1 -0 0 0 1 -1 -2 -1 1 0 -2 -0 -0 -1 -0 -1 -1 -1 0
0 -5 2 -2 2 -3 -1 1 4 1 6 -2 -1 1 2 3 1 -2 -0 0 -1 -1 -3 0 0 -0 2 -0 -1 -1 1 -2 0 -1 -1 -0 -1 -0 -0 -0 0 -1 -2
-1 3 -3 -2 2 -1 2 0 1 1 4 -1 0 -1 -1 1 1 1 1 1 2 0 1 -2 -0 0 -1 -0 1 -2 -3 -1 -2 -1 -1 -2 -2 -1 -1 -0 -1 -1 -1
-1 -6 1 3 -1 -3 -2 2 4 0 4 -0 3 -2 2 -0 1 0 1 1 3 1 0 2 -1 -1 -0 1 1 0 -2 1 -1 -1 -1 -1 -1 -1 -2 -1 -1 -2 -1
2 1 -4 -0 -1 -2 -1 1 6 3 -3 3 2 0 5 3 3 4 2 3 -0 -1 -0 1 2 -2 1 -0 -1 -1 -1 -2 -1 0 0 -2 -2 -1 -0 -0 -1 -1 -1
5 3 1 -3 -4 -2 -3 1 -3 -6 0 1 3 -1 3 0 -0 0 3 1 -1 -1 0 3 -1 -0 -0 -1 -0 1 -1 -1 -2 -2 -0 0 -1 -1 0 0 -0 -1 -1
-1 -1 6 6 3 1 -2 -3 -8 -7 1 1 -0 7 7 1 4 -1 3 2 2 3 -1 -1 0 0 -2 -2 -0 1 -1 -1 -2 -2 -1 0 1 0 -2 -0 -1 -1 -1
3 -1 -1 4 7 1 1 -1 -3 1 -4 -0 3 -1 3 -2 3 0 2 -0 4 1 1 -0 -3 0 -0 0 1 -0 -1 -2 -0 -1 0 -0 -1 -1 -1 -0 -0 -1 -2
0 1 -1 -2 1 1 3 4 -1 -2 -1 -5 -6 -6 -6 7 1 1 9 -6 3 -1 -1 2 -0 -3 -1 -2 1 1 -2 -2 0 1 0 -2 -2 -2 -1 -1 -2 -1 -1
2 -1 2 2 3 3 2 1 5 1 1 6 5 1 -1 2 5 1 10 5 5 4 1 4 -0 0 -2 0 -3 1 1 -1 -2 -1 1 -0 -2 0 -2 -1 -1 -2 -2
-2 1 5 8 4 5 5 0 -4 -4 3 4 -1 -3 3 0 4 4 5 6 2 4 -0 1 -5 0 -1 -1 -1 -3 -2 -2 -1 -1 -3 0 1 -3 -0 -2 -2 -2 -2
3 3 0 2 3 2 3 4 3 -0 -2 1 2 -0 -0 3 1 4 4 -3 6 2 4 -2 3 -1 0 -3 -1 -3 -5 -3 1 1 -1 -1 -0 0 -4 -0 -2 -3 -3
Height
3170 3171 3172 3173 3175 3175 3176 3176 3176 3175 3175 3174 3173 3172 3171 3170 3169 3169 3168 3168 3167 3166 3166 3166 3167 3167 3168 3169 3170 3171 3173 3174 3175 3176 3176 3177 3178 3179 3179 3178 3178 3178 3178
3170 3171 3172 3173 3174 3175 3176 3176 3176 3176 3175 3175 3174 3173 3171 3170 3169 3168 3167 3167 3167 3167 3167 3167 3167 3168 3169 3171 3171 3172 3173 3174 3174 3175 3176 3177 3177 3177 3177 3177 3177 3177 3176
3169 3171 3172 3173 3174 3175 3176 3177 3177 3177 3176 3176 3174 3173 3172 3170 3169 3169 3169 3168 3168 3167 3168 3168 3168 3170 3171 3171 3172 3173 3173 3174 3175 3175 3176 3176 3176 3176 3176 3176 3176 3175 3175
3167 3170 3172 3173 3174 3175 3176 3177 3177 3177 3177 3176 3176 3174 3174 3172 3171 3170 3169 3169 3168 3168 3168 3169 3170 3170 3171 3172 3173 3173 3173 3174 3174 3174 3174 3174 3174 3174 3174 3174 3174 3174 3173
3166 3168 3170 3172 3174 3175 3176 3176 3177 3177 3178 3177 3177 3176 3175 3174 3172 3171 3170 3170 3169 3169 3169 3169 3170 3170 3171 3171 3172 3172 3172 3172 3173 3173 3173 3173 3173 3173 3173 3173 3173 3172 3172
3165 3167 3169 3171 3173 3174 3175 3176 3177 3177 3178 3178 3178 3177 3176 3176 3174 3173 3172 3171 3171 3171 3170 3170 3171 3171 3171 3172 3172 3172 3172 3172 3172 3172 3171 3171 3172 3172 3172 3172 3171 3170 3170
3163 3166 3168 3170 3171 3173 3174 3175 3176 3177 3177 3178 3178 3178 3178 3177 3176 3175 3174 3173 3173 3172 3172 3172 3172 3172 3172 3172 3172 3172 3172 3171 3171 3171 3171 3171 3171 3171 3171 3170 3169 3169 3168
3163 3164 3166 3168 3170 3171 3173 3174 3175 3176 3176 3177 3178 3178 3179 3178 3178 3177 3176 3175 3174 3174 3174 3173 3173 3173 3173 3173 3172 3172 3171 3171 3171 3170 3170 3170 3169 3169 3168 3167 3167 3166 3166
3161 3163 3164 3166 3168 3170 3171 3172 3174 3175 3176 3176 3177 3178 3178 3178 3178 3177 3177 3177 3176 3176 3175 3174 3174 3173 3173 3173 3172 3172 3172 3171 3170 3169 3168 3168 3167 3167 3166 3164 3164 3163 3163
3159 3160 3162 3163 3166 3168 3169 3171 3172 3173 3174 3175 3176 3177 3177 3177 3177 3177 3177 3177 3176 3176 3176 3176 3175 3174 3174 3173 3172 3171 3170 3169 3168 3168 3167 3166 3165 3164 3163 3162 3161 3159 3159
3156 3158 3160 3161 3163 3165 3166 3168 3170 3171 3172 3173 3174 3175 3175 3176 3176 3176 3176 3176 3176 3175 3175 3175 3175 3174 3174 3173 3172 3171 3170 3168 3167 3166 3165 3164 3163 3161 3160 3159 3158 3157 3156
3154 3155 3157 3159 3160 3162 3164 3165 3167 3168 3170 3171 3172 3172 3173 3174 3174 3175 3175 3175 3174 3174 3174 3173 3173 3173 3172 3172 3171 3170 3169 3167 3165 3164 3163 3162 3160 3159 3157 3156 3155 3155 3154
3150 3152 3154 3155 3157 3158 3160 3162 3163 3165 3166 3167 3169 3170 3171 3171 3172 3172 3172 3172 3172 3172 3172 3172 3171 3170 3170 3170 3169 3168 3167 3166 3164 3162 3160 3159 3158 3156 3154 3153 3152 3152 3152
3147 3149 3150 3151 3153 3154 3156 3158 3159 3161 3162 3164 3165 3167 3168 3168 3169 3169 3169 3169 3169 3170 3170 3169 3169 3168 3168 3167 3167 3166 3165 3163 3161 3159 3157 3156 3154 3153 3152 3151 3150 3149 3149
3143 3145 3147 3148 3149 3150 3151 3153 3155 3156 3157 3159 3161 3162 3164 3165 3165 3165 3166 3166 3166 3166 3166 3166 3166 3165 3164 3164 3163 3163 3161 3160 3158 3156 3155 3153 3152 3151 3150 3148 3147 3147 3147
3138 3140 3141 3143 3145 3145 3146 3148 3149 3151 3152 3154 3156 3157 3158 3159 3160 3161 3161 3162 3161 3162 3162 3162 3162 3162 3161 3161 3160 3160 3157 3156 3155 3153 3151 3151 3149 3148 3147 3146 3146 3145 3144
3130 3132 3134 3136 3137 3140 3141 3142 3144 3145 3147 3149 3150 3151 3152 3153 3154 3155 3156 3157 3158 3157 3157 3158 3158 3158 3157 3157 3156 3156 3154 3153 3151 3150 3149 3148 3147 3146 3145 3144 3143 3143 3142
3122 3124 3127 3128 3130 3132 3134 3137 3138 3139 3141 3143 3144 3145 3146 3147 3148 3149 3151 3152 3152 3153 3153 3153 3153 3154 3153 3153 3152 3151 3150 3149 3148 3147 3146 3145 3145 3144 3143 3142 3141 3140 3139
3116 3116 3117 3120 3122 3124 3127 3129 3131 3133 3134 3137 3137 3139 3140 3141 3143 3144 3145 3146 3147 3148 3149 3149 3149 3149 3149 3148 3147 3146 3145 3144 3144 3143 3143 3142 3141 3140 3139 3139 3138 3137 3135
3108 3109 3110 3112 3114 3117 3119 3120 3122 3125 3128 3129 3131 3133 3134 3135 3136 3138 3139 3140 3142 3143 3144 3144 3144 3144 3144 3143 3142 3141 3141 3140 3140 3140 3140 3139 3138 3136 3135 3134 3133 3132 3131
3098 3100 3103 3104 3107 3109 3110 3112 3114 3116 3121 3123 3125 3126 3128 3129 3130 3132 3133 3135 3136 3137 3138 3138 3139 3138 3138 3138 3137 3136 3135 3135 3136 3136 3136 3135 3134 3132 3131 3130 3129 3128 3126
3088 3089 3090 3094 3097 3100 3102 3105 3105 3109 3111 3115 3117 3120 3122 3122 3123 3126 3127 3128 3130 3130 3131 3132 3133 3133 3132 3132 3131 3131 3130 3131 3130 3130 3131 3130 3129 3128 3127 3126 3124 3123 3122
3080 3082 3083 3084 3085 3088 3092 3096 3096 3099 3100 3104 3107 3111 3114 3115 3117 3118 3120 3121 3123 3124 3125 3125 3125 3126 3127 3127 3126 3125 3124 3125 3125 3125 3125 3124 3123 3122 3121 3119 3118 3117 3115
3071 3073 3075 3077 3078 3080 3082 3084 3086 3089 3091 3095 3099 3104 3105 3108 3109 3110 3113 3114 3115 3117 3117 3118 3118 3119 3120 3121 3120 3120 3119 3119 3119 3119 3119 3118 3117 3115 3114 3113 3111 3109 3107
3065 3065 3067 3070 3071 3073 3074 3075 3077 3079 3081 3084 3087 3091 3094 3098 3100 3102 3104 3106 3108 3110 3110 3111 3111 3112 3113 3114 3114 3114 3114 3113 3113 3112 3112 3111 3110 3109 3107 3105 3103 3101 3098
3060 3060 3060 3062 3064 3064 3065 3066 3067 3070 3072 3073 3076 3079 3083 3087 3090 3093 3096 3098 3099 3102 3103 3104 3105 3105 3106 3106 3106 3107 3107 3107 3106 3105 3104 3104 3103 3102 3100 3098 3095 3092 3089